Regional Weather Roundup
Issued by NWS Sterling, VA

Home | Current Version | Previous Version | Graphics & Text | Print | Product List | Glossary On
Versions: 1 2 3 4 5 6 7 8 9 10 11 12 13 14 15 16 17 18 19 20 21 22 23 24 25 26 27
000
ASUS41 KLWX 211510
RWRLWX

REGIONAL WEATHER ROUNDUP
NATIONAL WEATHER SERVICE BALTIMORE MD/WASHINGTON DC
1000 AM EST TUE NOV 21 2017

Note: "FAIR" indicates few or no clouds below 12,000 feet
with no significant weather and/or obstructions to visibility.
 TC=TEMPERATURE CELSIUS

 * =Non NWS site. Station does not report precipitation (e.g. rain,
    snow, etc.), thunder, or fog.

DCZ001-MDZ009-015-VAZ040>042-051-053>054-211600-
WASHINGTON METRO

CITY           SKY/WX    TMP DP  RH WIND       PRES   REMARKS
WASHINGTON NAT PTSUNNY   50  31  48 SW15      30.15F
DULLES         MOSUNNY   48  30  49 S10       30.13S
ANDREWS AFB    SUNNY     51  28  41 SW12      30.13F
FT BELVOIR     SUNNY     49  30  47 S5        30.15F
QUANTICO       MOSUNNY   52  38  58 S13       30.16F
COLLEGE PARK*  SUNNY     49  29  47 SW9       30.15S
LEESBURG*      MOSUNNY   46  32  57 CALM      30.13S
MANASSAS*      SUNNY     50  30  46 S8        30.14F
GAITHERSBURG*  CLOUDY    48  28  46 SW8       30.13S

$$

MDZ006>007-011-014-211600-
BALTIMORE METRO

CITY           SKY/WX    TMP DP  RH WIND       PRES   REMARKS
BWI AIRPORT    PTSUNNY   51  30  44 SW14      30.13S
MD SCIENCE CTR   N/A     52  30  43 MISG      30.16S
MARTIN STATE   MOSUNNY   52  34  50 SW12      30.15S
ANNAPOLIS      SUNNY     52  31  44 SW10G18   30.15S
FORT MEADE*    SUNNY     48  32  53 SW12G20   30.16S

$$

MDZ012-015-019>023-211600-
MARYLAND EASTERN SHORE

CITY           SKY/WX    TMP DP  RH WIND       PRES   REMARKS
OCEAN CITY     SUNNY     53  38  56 SW9G18    30.23S
SALISBURY      SUNNY     53  40  61 SW13      30.22R
CAMBRIDGE*     SUNNY     52  32  46 SW10G23   30.20R
EASTON*        SUNNY     54  30  40 S16       30.21S

$$

MDZ017>025-211600-
SOUTHERN MARYLAND

CITY           SKY/WX    TMP DP  RH WIND       PRES   REMARKS
PATUXENT RIVER MOSUNNY   52  29  41 SW18G29   30.19R
ST INIGOES     SUNNY     52  35  52 SW9       30.20S
LEONARDTOWN*   SUNNY     50  30  46 SW9G18    30.20S

$$

MDZ003>005-211600-
NORTH CENTRAL MARYLAND

CITY           SKY/WX    TMP DP  RH WIND       PRES   REMARKS
FREDERICK*     SUNNY     45  28  53 SW5       30.16R
HAGERSTOWN APT MOSUNNY   42  26  53 S3        30.09S
WESTMINSTER*   CLOUDY    46  30  53 SW9       30.11R

$$

MDZ501>502-211600-
WESTERN MARYLAND

CITY           SKY/WX    TMP DP  RH WIND       PRES   REMARKS
OAKLAND*       SUNNY     45  18  33 SW17G25   30.00R
CUMBERLAND*    MOSUNNY   32  30  93 CALM      30.12F

$$

VAZ025>031-211600-
SHENANDOAH VALLEY

CITY           SKY/WX    TMP DP  RH WIND       PRES   REMARKS
WINCHESTER*    CLOUDY    46  28  49 SW10G17   30.09S
FRONT ROYAL*   CLOUDY    52  27  37 SW6       30.08F
LURAY*         SUNNY     50  28  43 SW10      30.09F
NEW MARKET*    SUNNY     47  26  43 W7        30.08F
STAUNTON*      SUNNY     46  28  49 S5        30.13S
WAYNESBORO*    MOSUNNY   46  31  55 SW13G18   30.11S

$$

WVZ021-048>050-054>055-211600-
EASTERN WEST VIRGINIA PANHANDLE

CITY           SKY/WX    TMP DP  RH WIND       PRES   REMARKS
MARTINSBURG    MOSUNNY   50  28  42 S5        30.08S
PETERSBURG*    CLOUDY    40  30  68 CALM      30.07F

$$

VAZ036>039-050-211600-
CENTRAL FOOTHILLS

CITY           SKY/WX    TMP DP  RH WIND       PRES   REMARKS
CHARLOTTESVILL SUNNY     47  29  49 SW10G18   30.13F
CULPEPER*      SUNNY     49  28  44 S8        30.14F
ORANGE*        SUNNY     43  30  61 S5        30.15F
GORDONSVILLE*  CLOUDY    44  30  56 SW9       30.14F
WARRENTON*     NOT AVBL

$$

VAZ055>057-211600-
NORTH AND CENTRAL PIEDMONT

CITY           SKY/WX    TMP DP  RH WIND       PRES   REMARKS
FREDERICKSBRG* SUNNY     53  31  43 SW15      30.16S
STAFFORD*      SUNNY     53  29  39 S12G23    30.18F

$$

NCZ024-NYZ072-PAZ021-071-VAZ022-071-211600-
OTHER REGIONAL OBSERVATIONS

CITY           SKY/WX    TMP DP  RH WIND       PRES   REMARKS
NEW YORK CITY  SUNNY     50  31  48 VRB7G17   30.14S
PHILADELPHIA   PTSUNNY   52  31  44 SW18G24   30.14F
PITTSBURGH     PTSUNNY   49  27  42 SW17G29   29.95F
ROANOKE        CLOUDY    39  31  72 CALM      30.18S
RICHMOND       PTSUNNY   50  31  48 S12       30.21F
RALEIGH        CLOUDY    50  37  61 CALM      30.22S

$$

ANZ530>537-211600-
MARINE OBSERVATIONS

STATION/POSITION TIME  TEMP    WIND        PRES
                       AIR SEA DIR/SP/G
                 (UTC) (F)     (DEG/KT/KT) (MB)
THOMAS PT LIGHT  1500   51 53  210/ 15/ 17   N/A
BALT KEY BRIDGE  1442   49     230/ 17/ 22 1020.0F
COVE POINT       1442   51     230/ 20/ 26 1022.4F
LEWISETTA        1442   50 49  230/ 14/ 17 1022.7S
SOLOMONS ISLAND  1442   51 53  220/ 19/ 23 1021.8S
PINEY POINT      1436          240/ 11/ 15   N/A

$$





USA.gov is the U.S. government's official web portal to all federal, state and local government web resources and services.